ATLAS 5 CENTAUR DEB, 44642

Orbit data source: Space-Track

ATLAS 5 CENTAUR DEB, 44642 is space debris in HEO originally from a launch on Wed, 17 Oct 2018 UTC launched from the Air Force Eastern Test Range (AFETR). Debris objects in space refer to the collection of defunct objects orbiting the Earth. Examples of debris include non-operational satellites, rocket bodies, and fragments generated from explosions, collisions, or faulty payload assembly.

Loading next visibility...
Identifier
44642, 2018-079C
Orbit
HEO
Country
Flag of USUS
Related business
Flag of USUnited Launch Alliance/Lockheed Martin (US)
Manufacturer
ULA Decatur
Mission
Spacecraft
Bus & Motor
Unknown
Mass
Unknown
Launch date (UTC)
2018-10-17 (8 years ago)
Launch vehicle
Unknown
Launch site
Air Force Eastern Test Range (AFETR)
Object type
Payload
Rocket body
Debris
Shape & HBR
Unknown shape, 1.1 m
Radar Cross Section
Large (>1 m²)

Expand to show TLE details & history
Last TLE update: 17 hours ago

TLE from 17 hours ago
0 ATLAS 5 CENTAUR DEB
1 44642U 18079C   26124.73078566 -.00000138  00000-0  00000-0 0  9995
2 44642  13.1501  31.3685 4735998 327.1496  10.8428  1.84564345 50846
Epoch: 2026-05-04T17:32Z
TLE epoch observation values (Epoch: 2026-05-04T17:32:19.881Z)
Latitude
0.00001°
Longitude
-94.3778°
Altitude
9,196.398 km
Speed
6.082 km/s
True Right ascension
02h 05m 16s
True Declination
0° 00' 00"
Sunlit
Object was in daylight at epoch
Visualization orbit readout
Latitude
Unknown
Longitude
Unknown
Altitude
Unknown
Speed
Unknown
Apparent Right ascension
Unknown
Apparent Declination
Unknown
Sunlit
N/A
Visualization observer readout
Local Sidereal Time
18:45:15
Azimuth
Unknown
Elevation
Unknown
Doppler factor
Unknown
Orbital elements
Apogee altitude
34,994.756 km
Perigee altitude
8,401.112 km
Semi-major axis
28,076.071 km
Eccentricity
0.4736
Inclination
13.1501°
RAAN
31.3685°
Arg. of periapsis
327.1496°
True anomaly
33.22724°
Mean anomaly
10.8428°
Eccentric anomaly
20.22261°
Mean motion
0.46136 °/min
Orbital period
780.3 mins
BSTAR
0
Loading maneuver chart data...
Computing Atmospheric mass density...

Documentation

Showing up to 5 results
|